Date,TemperatureHighF,TemperatureAvgF,TemperatureLowF,DewpointHighF,DewpointAvgF,DewpointLowF,HumidityHigh,HumidityAvg,HumidityLow,PressureMaxIn,PressureMinIn,WindSpeedMaxMPH,WindSpeedAvgMPH,GustSpeedMaxMPH,PrecipitationSumIn
2013-1-1,34,21,6,28,9,-3,90,60,43,29.96,29.67,21,5,21,0.00
2013-1-2,16,8,1,12,1,-10,82,71,58,30.27,29.88,24,7,24,0.00
2013-1-3,14,5,-5,6,-5,-13,72,63,55,30.26,29.92,14,3,14,0.00
2013-1-4,35,27,13,29,20,6,92,74,60,29.92,29.73,28,5,28,0.01
2013-1-5,36,26,13,26,15,7,80,63,48,30.24,29.78,23,4,23,0.01
2013-1-6,35,28,14,28,21,8,88,78,70,30.19,29.87,19,4,19,0.02
2013-1-7,28,20,15,18,13,8,85,72,55,30.39,29.98,24,5,24,0.02
2013-1-8,38,29,19,24,20,15,89,69,53,30.36,30.18,24,6,24,0.01
2013-1-9,44,30,14,30,22,-100,92,72,46,30.36,29.89,32,3,32,0.01
2013-1-10,43,14,37,28,-57,-100,61,19,50,30.55,30.01,24,-653,24,0.01
2013-1-11,38,8,32,24,-73,-100,72,13,52,30.54,30.07,22,-776,22,0.00
2013-1-12,45,25,41,41,-19,-100,96,53,85,30.10,30.03,27,-411,27,0.00
2013-1-13,47,44,40,45,42,39,98,93,89,30.09,29.87,28,9,28,0.00
2013-1-14,52,44,35,46,34,21,94,70,37,30.29,29.78,26,5,26,0.00
2013-1-15,35,32,27,24,21,17,79,64,49,30.34,30.23,13,2,13,0.00
2013-1-16,32,30,28,29,26,21,93,85,75,30.23,29.77,18,4,18,0.00
2013-1-17,32,22,8,28,12,-6,89,68,45,30.21,29.77,23,5,23,0.00
2013-1-18,25,12,0,7,-4,-11,71,49,30,30.39,30.17,21,3,21,0.00
2013-1-19,40,32,20,26,18,6,85,58,50,30.23,29.69,30,10,30,0.00
2013-1-20,42,34,18,33,18,-3,85,52,37,29.97,29.39,40,11,40,0.02
2013-1-21,21,14,8,9,4,-3,84,65,41,30.07,29.83,17,3,17,0.02
2013-1-22,17,11,5,10,2,-12,84,68,35,30.09,29.81,21,3,21,0.00
2013-1-23,7,-1,-8,-4,-13,-18,69,55,41,30.22,30.09,16,3,16,0.00
2013-1-24,13,1,-9,-4,-12,-16,72,55,27,30.37,30.18,29,4,29,0.00
2013-1-25,14,7,0,4,-5,-10,73,57,42,30.40,30.12,19,3,19,0.00
2013-1-26,17,11,5,5,0,-5,79,61,42,30.31,30.10,21,5,21,0.00
2013-1-27,24,14,7,6,0,-5,67,53,32,30.52,30.31,18,3,18,0.00
2013-1-28,24,18,7,22,12,-2,93,79,50,30.48,29.97,16,2,16,0.00
2013-1-29,36,28,24,35,26,21,98,90,83,30.16,29.95,22,2,22,0.15
2013-1-30,56,47,36,54,44,34,98,92,90,29.95,29.24,32,12,32,0.07
2013-1-31,56,40,25,54,29,5,96,66,37,29.54,28.78,40,11,40,0.20
2013-2-1,25,20,12,11,6,1,75,55,40,30.12,29.54,26,6,26,0.20
2013-2-2,22,17,10,14,8,2,85,66,51,30.18,30.02,24,5,24,0.00
2013-2-3,29,19,9,14,11,5,87,73,46,30.03,29.75,10,1,10,0.00
2013-2-4,26,19,10,15,3,-12,88,54,20,29.93,29.73,33,5,33,0.00
2013-2-5,24,14,4,8,-2,-10,63,49,35,30.05,29.89,14,2,14,0.00
2013-2-6,36,23,11,24,8,-8,78,53,29,30.38,29.87,22,5,22,0.00
2013-2-7,14,10,4,0,-4,-10,61,52,37,30.61,30.38,22,5,22,0.00
2013-2-8,23,17,11,21,12,-1,93,82,57,30.43,29.93,22,2,22,0.00
2013-2-9,19,12,4,16,3,-6,90,67,41,30.37,29.93,34,9,34,0.00
2013-2-10,26,12,-6,5,-1,-12,83,58,31,30.51,30.25,17,2,17,0.05
2013-2-11,39,31,18,36,22,4,95,71,34,30.25,29.59,26,7,26,0.07
2013-2-12,40,37,34,30,26,20,72,64,55,29.83,29.58,24,5,24,0.07
2013-2-13,37,34,30,27,23,20,85,64,52,29.83,29.74,15,2,15,0.00
2013-2-14,40,33,29,29,24,19,91,69,45,29.92,29.74,16,1,16,0.00
2013-2-15,44,38,33,31,25,17,84,62,42,29.95,29.82,26,7,26,0.00
2013-2-16,35,27,20,22,13,4,71,54,42,30.01,29.91,18,5,18,0.00
2013-2-17,20,15,12,7,3,-2,78,60,40,29.91,29.69,27,8,27,0.00
2013-2-18,30,18,10,2,-3,-9,58,40,21,30.15,29.88,24,4,24,0.00
2013-2-19,42,29,16,32,16,0,97,60,34,30.14,29.59,24,5,24,0.12
2013-2-20,32,28,25,32,19,11,97,69,46,29.77,29.59,23,4,23,0.04
2013-2-21,25,18,12,17,8,1,82,65,50,30.40,29.77,21,5,21,0.04
2013-2-22,36,27,18,25,21,14,90,77,60,30.44,30.22,10,1,10,0.01
2013-2-23,36,34,30,32,28,22,96,80,62,30.22,29.88,21,6,21,0.02
2013-2-24,36,33,30,35,32,28,97,95,90,29.95,29.78,13,2,13,0.07
2013-2-25,39,33,30,33,31,29,97,92,78,30.23,29.95,5,0,5,0.02
2013-2-26,45,36,31,37,30,26,98,83,59,30.32,30.08,11,1,11,0.02
2013-2-27,38,34,33,36,31,25,97,88,60,30.08,29.63,15,2,15,0.13
2013-2-28,46,36,32,35,33,31,98,87,62,29.63,29.55,14,2,14,0.03
2013-3-1,38,33,32,32,29,26,93,83,70,29.77,29.61,19,4,19,0.04
2013-3-2,34,30,23,29,25,21,92,83,68,29.79,29.74,17,4,17,0.00
2013-3-3,33,27,23,25,21,18,91,78,66,29.77,29.68,16,3,16,0.07
2013-3-4,33,27,26,23,20,17,86,73,55,29.90,29.70,20,4,20,0.07
2013-3-5,36,29,25,26,23,20,89,79,64,30.11,29.90,14,2,14,0.01
2013-3-6,45,35,26,34,26,22,91,70,45,30.17,30.08,19,3,19,0.01
2013-3-7,38,34,31,26,23,19,80,66,49,30.20,30.15,20,4,20,0.00
2013-3-8,39,33,29,27,24,22,83,72,58,30.33,30.15,29,8,29,0.00
2013-3-9,48,35,24,30,24,20,82,64,35,30.37,30.30,17,2,17,0.00
2013-3-10,54,42,27,26,24,20,83,53,28,30.33,30.10,31,8,31,0.00
2013-3-11,49,46,41,35,30,26,64,56,42,30.15,29.92,33,12,33,0.00
2013-3-12,52,46,37,50,42,32,96,87,54,29.96,29.67,23,8,28,1.14
2013-3-13,42,36,29,38,32,27,98,87,64,29.82,29.74,16,1,16,0.01
2013-3-14,33,26,19,28,14,3,92,58,47,29.93,29.73,28,5,28,0.01
2013-3-15,33,25,16,29,14,4,95,66,40,29.94,29.57,24,6,24,0.00
2013-3-16,30,24,19,21,14,10,79,65,50,29.93,29.74,18,3,18,0.01
2013-3-17,28,21,13,16,8,0,84,59,34,30.36,29.93,23,5,23,0.01
2013-3-18,33,23,11,22,7,0,73,50,29,30.45,30.11,16,2,16,0.00
2013-3-19,34,30,28,33,29,22,98,95,73,30.11,29.72,22,3,22,0.09
2013-3-20,35,29,22,28,22,14,96,76,53,29.73,29.65,21,3,21,0.09
2013-3-21,37,28,21,22,16,12,79,61,37,29.74,29.63,17,3,17,0.09
2013-3-22,36,27,18,26,18,13,85,68,51,29.76,29.65,11,2,11,0.00
2013-3-23,39,34,28,23,20,16,74,57,39,29.82,29.69,30,7,30,0.00
2013-3-24,42,35,27,27,23,20,80,62,48,29.87,29.80,22,4,22,0.00
2013-3-25,44,34,25,30,26,20,85,73,54,29.82,29.57,18,3,18,0.00
2013-3-26,48,38,32,30,26,21,79,64,37,29.81,29.62,20,4,20,0.00
2013-3-27,52,41,32,33,27,22,80,59,43,29.93,29.78,21,4,21,0.00
2013-3-28,54,41,35,38,34,32,95,77,49,30.05,29.93,17,2,17,0.01
2013-3-29,53,43,36,38,32,27,86,67,45,30.08,30.01,18,2,18,0.00
2013-3-30,54,41,28,32,24,14,90,55,21,30.11,30.04,16,2,16,0.00
2013-3-31,56,43,28,40,25,18,89,53,29,30.09,29.71,29,7,29,0.03
2013-4-1,48,40,30,42,29,8,94,69,26,29.79,29.50,30,8,30,0.03
2013-4-2,34,30,26,15,10,5,57,42,30,29.91,29.78,28,10,28,0.03
2013-4-3,41,34,26,17,9,3,52,37,22,30.20,29.91,26,7,26,0.00
2013-4-4,52,40,26,22,16,10,62,39,27,30.26,29.89,29,7,29,0.00
2013-4-5,50,42,32,29,23,14,59,47,36,29.98,29.77,20,6,20,0.00
2013-4-6,43,32,25,18,11,3,61,41,22,30.29,29.98,26,5,26,0.00
2013-4-7,58,47,31,37,22,8,58,39,26,30.24,29.77,41,12,41,0.00
2013-4-8,55,47,42,37,33,30,75,59,43,30.13,29.86,17,4,17,0.00
2013-4-9,55,47,40,45,40,34,95,78,55,30.01,29.77,21,3,21,0.04
2013-4-10,52,44,41,46,42,37,98,89,68,30.01,29.91,14,1,14,0.07
2013-4-11,41,36,33,40,23,11,95,60,34,30.20,29.92,20,4,20,0.08
2013-4-12,36,34,32,34,29,19,96,85,56,30.18,29.80,21,3,21,0.57
2013-4-13,50,42,35,40,35,32,94,79,60,29.89,29.77,20,6,20,0.02
2013-4-14,48,42,32,38,33,27,88,71,50,30.23,29.88,15,2,15,0.02
2013-4-15,59,45,27,36,31,25,95,63,36,30.35,30.18,20,4,20,0.01
2013-4-16,58,54,49,54,42,30,94,65,46,30.22,29.92,35,12,35,0.02
2013-4-17,58,49,38,40,32,27,71,54,35,30.34,30.07,21,5,21,0.02
2013-4-18,65,49,34,42,34,29,83,60,34,30.35,29.92,40,10,40,0.01
2013-4-19,75,63,48,59,53,42,91,70,52,29.93,29.42,40,14,40,0.69
2013-4-20,51,45,36,43,29,16,84,55,34,30.29,29.66,28,8,28,0.69
2013-4-21,49,38,30,26,19,12,68,47,25,30.68,30.29,18,4,18,0.00
2013-4-22,58,42,25,28,20,14,79,46,20,30.72,30.50,23,4,23,0.00
2013-4-23,55,44,32,38,30,20,77,59,42,30.52,30.13,25,6,25,0.00
2013-4-24,72,55,38,52,40,35,92,62,29,30.13,29.61,27,8,27,0.02
2013-4-25,60,50,40,53,31,22,79,51,27,30.28,29.61,24,4,24,0.01
2013-4-26,58,45,33,40,33,28,85,65,43,30.44,30.27,16,2,16,0.01
2013-4-27,66,48,32,39,32,18,95,60,24,30.44,30.27,10,1,10,0.00
2013-4-28,73,55,33,39,32,23,85,47,17,30.30,30.07,21,2,21,0.00
2013-4-29,64,59,54,46,40,33,61,50,39,30.17,30.09,23,7,23,0.00
2013-4-30,72,62,53,48,44,39,72,53,38,30.27,30.17,19,5,19,0.00
2013-5-1,79,65,52,46,39,30,74,40,22,30.42,30.23,13,2,13,0.00
2013-5-2,82,67,56,51,42,34,56,42,27,30.42,30.26,18,3,18,0.00
2013-5-3,73,61,48,43,36,29,64,41,24,30.48,30.29,15,3,15,0.00
2013-5-4,79,64,49,50,44,39,77,51,27,30.33,30.14,15,2,15,0.00
2013-5-5,80,65,54,44,36,29,67,36,21,30.23,30.06,20,4,20,0.00
2013-5-6,78,65,52,48,33,18,63,34,11,30.19,30.00,19,4,19,0.00
2013-5-7,84,68,55,52,41,25,77,43,13,30.12,29.98,15,3,15,0.00
2013-5-8,78,66,58,63,54,40,97,69,39,30.13,29.98,26,3,26,0.34
2013-5-9,74,64,57,61,55,47,99,76,42,29.98,29.82,19,2,19,0.01
2013-5-10,72,62,56,61,56,53,93,82,59,29.97,29.76,15,1,15,0.02
2013-5-11,69,63,54,62,57,46,94,80,56,29.77,29.59,27,7,27,0.21
2013-5-12,61,53,44,49,39,21,93,63,27,29.76,29.62,23,3,23,0.21
2013-5-13,51,46,41,34,29,25,71,52,38,30.04,29.76,20,5,20,0.00
2013-5-14,61,47,32,38,31,24,95,59,27,30.10,29.98,15,1,15,0.00
2013-5-15,63,49,34,49,38,28,84,68,31,30.02,29.58,27,5,32,0.04
2013-5-16,75,59,48,49,42,30,94,58,20,29.88,29.59,40,7,40,0.01
2013-5-17,69,56,45,44,42,37,87,60,35,30.20,29.88,20,3,20,0.01
2013-5-18,76,58,39,49,41,30,94,61,21,30.29,30.17,10,0,10,0.00
2013-5-19,67,59,53,56,51,41,95,76,57,30.26,30.08,23,4,23,0.13
2013-5-20,71,62,57,63,58,54,97,86,72,30.08,29.94,20,3,20,0.14
2013-5-21,72,62,57,66,58,54,99,88,69,29.95,29.78,31,3,31,0.42
2013-5-22,78,68,57,70,64,56,98,86,72,29.85,29.70,17,3,19,0.53
2013-5-23,78,70,62,68,64,59,96,83,62,29.75,29.67,21,5,21,0.44
2013-5-24,62,49,45,61,47,43,98,95,87,30.03,29.69,29,7,29,0.65
2013-5-25,45,43,42,44,42,40,95,94,93,30.02,29.90,32,9,32,1.19
2013-5-26,51,45,42,46,42,40,96,90,75,30.09,29.86,25,6,25,0.14
2013-5-27,71,54,37,45,40,34,98,66,28,30.16,30.07,14,1,14,0.01
2013-5-28,72,59,41,50,43,37,91,61,29,30.21,30.06,15,2,15,0.01
2013-5-29,68,62,55,65,59,49,99,89,64,30.07,29.90,21,3,21,0.25
2013-5-30,91,74,62,69,64,61,98,74,39,30.05,29.95,10,1,10,0.01
2013-5-31,90,78,63,69,64,56,94,66,34,30.05,29.85,21,2,21,0.01
2013-6-1,87,76,64,70,66,63,96,72,48,29.91,29.75,20,2,20,0.06
2013-6-2,85,72,66,72,67,59,98,86,53,29.80,29.63,22,3,22,0.13
2013-6-3,72,66,57,61,53,39,90,66,43,29.86,29.74,19,3,19,0.13
2013-6-4,68,59,50,48,43,38,83,57,43,30.10,29.86,21,4,21,0.00
2013-6-5,69,59,46,50,46,40,95,65,39,30.20,30.10,14,1,14,0.00
2013-6-6,67,56,53,54,51,44,97,81,47,30.16,30.05,14,1,14,0.07
2013-6-7,58,55,52,55,52,49,98,93,78,30.06,29.86,13,1,13,0.15
2013-6-8,62,58,54,59,56,53,99,94,82,30.02,29.76,13,1,13,0.01
2013-6-9,81,66,57,60,56,50,99,75,36,30.16,30.01,12,1,12,0.02
2013-6-10,74,62,52,62,57,51,98,83,53,30.18,29.94,16,1,16,0.32
2013-6-11,62,59,57,60,58,56,99,97,91,29.94,29.56,11,0,11,0.88
2013-6-12,70,60,54,57,54,52,99,83,58,29.83,29.60,31,4,31,0.10
2013-6-13,66,60,54,58,55,52,96,84,71,29.82,29.68,10,0,10,0.10
2013-6-14,78,64,52,62,55,46,99,75,44,29.85,29.68,20,2,20,0.06
2013-6-15,80,65,51,54,46,41,82,54,27,29.96,29.85,9,0,9,0.06
2013-6-16,67,62,57,61,54,46,97,75,58,29.89,29.67,17,2,17,0.14
2013-6-17,77,64,55,65,58,52,99,82,46,29.93,29.75,16,1,16,0.18
2013-6-18,72,60,51,54,50,47,94,72,45,29.99,29.91,13,1,13,0.01
2013-6-19,71,60,50,50,43,33,89,56,27,30.17,29.98,18,2,18,0.01
2013-6-20,79,62,45,55,48,41,93,64,32,30.25,30.15,11,0,11,0.00
2013-6-21,84,68,51,61,54,48,93,65,32,30.24,30.16,10,0,10,0.00
2013-6-22,79,68,60,68,62,56,98,82,61,30.17,30.06,15,1,15,0.07
2013-6-23,85,74,66,77,69,66,99,84,64,30.07,29.90,18,2,18,0.07
2013-6-24,88,76,68,73,68,65,96,78,56,29.96,29.86,18,2,18,0.33
2013-6-25,86,73,67,72,68,64,98,85,61,29.91,29.71,23,2,23,0.04
2013-6-26,77,71,68,71,68,66,99,92,73,29.79,29.72,11,1,11,0.97
2013-6-27,89,74,66,73,68,65,98,83,48,29.77,29.68,13,1,13,0.03
2013-6-28,80,68,59,68,62,58,100,84,58,29.69,29.36,20,3,20,0.58
2013-6-29,80,69,61,69,64,60,97,85,59,29.65,29.47,20,1,20,0.03
2013-6-30,84,72,64,69,66,63,99,84,56,29.91,29.65,12,1,12,0.38
2013-7-1,72,67,62,66,64,61,98,90,77,30.06,29.91,16,1,17,0.27
2013-7-2,79,66,59,71,64,59,99,92,72,30.13,30.05,14,1,14,0.40
2013-7-3,81,72,67,74,71,67,100,95,79,30.14,30.08,12,1,13,0.02
2013-7-4,87,77,71,75,73,70,99,87,62,30.15,30.04,17,1,17,0.05
2013-7-5,89,77,71,75,72,69,95,85,58,30.12,30.01,18,1,18,0.03
2013-7-6,91,79,69,73,69,60,96,76,37,30.06,29.96,10,1,10,0.03
2013-7-7,85,74,69,71,68,63,95,80,56,30.01,29.90,13,1,13,0.00
2013-7-8,82,73,69,71,69,68,99,90,65,30.02,29.91,12,1,12,0.02
2013-7-9,85,75,66,72,69,65,99,82,61,30.06,29.94,8,0,8,0.02
2013-7-10,80,76,72,74,71,68,93,84,75,29.94,29.69,21,4,21,0.05
2013-7-11,83,75,64,73,65,57,94,73,48,30.00,29.70,16,2,16,0.05
2013-7-12,80,70,61,63,59,57,93,72,48,30.18,30.00,17,2,17,0.00
2013-7-13,81,71,59,68,63,58,98,77,58,30.27,30.18,12,0,12,0.00
2013-7-14,90,78,71,74,70,67,91,77,56,30.29,30.18,7,0,7,0.00
2013-7-15,97,80,69,73,69,60,97,72,33,30.21,30.11,12,0,12,0.00
2013-7-16,92,80,67,73,69,66,95,72,46,30.21,30.13,13,1,13,0.00
2013-7-17,93,81,69,77,70,66,90,70,48,30.16,29.92,15,1,15,0.00
2013-7-18,92,80,70,75,72,68,98,78,50,30.01,29.88,17,0,17,0.01
2013-7-19,94,82,73,76,71,65,95,71,43,29.89,29.62,31,4,31,0.03
2013-7-20,86,77,68,70,64,54,83,66,37,29.81,29.62,21,3,21,0.02
2013-7-21,78,68,60,62,56,51,93,66,45,30.00,29.81,17,2,17,0.02
2013-7-22,83,69,56,68,60,53,96,75,53,30.01,29.82,18,0,18,0.13
2013-7-23,83,72,68,71,68,65,99,88,61,29.82,29.52,13,0,13,0.11
2013-7-24,72,66,55,68,58,48,98,78,55,30.03,29.54,23,3,23,0.03
2013-7-25,72,60,48,54,50,45,96,71,50,30.14,30.03,20,2,20,0.01
2013-7-26,76,64,54,61,57,52,96,78,55,30.10,29.99,15,1,15,0.01
2013-7-27,83,68,54,62,58,53,97,73,42,30.03,29.91,12,0,12,0.01
2013-7-28,80,72,67,67,64,60,92,77,65,29.94,29.88,15,1,15,0.01
2013-7-29,80,72,65,68,62,50,98,75,35,30.06,29.91,15,1,15,0.03
2013-7-30,80,68,59,63,58,53,94,71,42,30.12,30.04,9,0,9,0.02
2013-7-31,81,69,57,62,59,55,95,73,45,30.12,29.98,12,1,12,0.02
2013-8-1,78,68,61,67,62,57,95,82,61,29.98,29.79,17,2,20,0.01
2013-8-2,82,70,63,66,60,52,98,74,37,29.81,29.75,9,1,15,0.01
2013-8-3,78,68,61,62,57,52,97,69,44,29.83,29.75,18,2,18,0.01
2013-8-4,75,65,59,60,56,49,92,72,45,29.93,29.80,25,2,25,0.01
2013-8-5,75,64,53,53,47,34,81,56,27,30.03,29.93,20,2,20,0.00
2013-8-6,76,64,51,55,51,48,90,67,40,30.11,30.03,12,0,12,0.00
2013-8-7,79,69,57,62,58,53,89,70,49,30.11,29.96,21,3,22,0.00
2013-8-8,83,73,68,71,66,60,96,78,59,29.97,29.91,24,4,24,0.03
2013-8-9,80,73,67,74,71,65,98,93,71,29.92,29.74,21,0,21,0.02
2013-8-10,79,70,60,70,56,46,98,64,32,30.02,29.77,17,2,17,0.01
2013-8-11,79,67,55,61,55,51,89,67,41,30.07,29.95,11,0,11,0.01
2013-8-12,80,68,57,64,58,54,92,72,47,30.00,29.86,7,0,10,0.01
2013-8-13,73,66,62,65,62,58,99,89,70,29.87,29.65,17,2,17,0.00
2013-8-14,70,61,54,63,54,50,99,79,58,29.96,29.67,16,2,18,0.00
2013-8-15,76,63,51,55,51,47,92,68,39,30.07,29.96,12,1,12,0.00
2013-8-16,79,65,52,63,55,48,93,71,45,30.19,30.07,10,0,10,0.00
2013-8-17,79,66,56,63,58,55,98,79,48,30.29,30.19,15,1,15,0.00
2013-8-18,78,66,55,63,58,54,97,79,54,30.26,30.06,9,0,9,0.00
2013-8-19,88,70,58,68,60,57,96,73,41,30.06,29.93,10,0,10,0.00
2013-8-20,86,72,60,68,62,58,95,73,44,30.07,29.98,10,0,10,0.00
2013-8-21,88,74,62,69,63,59,92,71,39,30.12,29.96,14,1,14,0.00
2013-8-22,86,73,67,70,65,61,97,78,51,29.98,29.78,19,2,19,0.00
2013-8-23,74,66,54,64,55,50,90,71,46,30.18,29.87,23,2,23,0.00
2013-8-24,82,63,48,57,52,40,98,72,24,30.33,30.18,12,0,12,0.00
2013-8-25,80,65,51,65,55,45,95,72,37,30.37,30.10,11,1,11,0.14
2013-8-26,74,69,64,69,64,60,98,86,75,30.11,29.85,13,2,13,0.59
2013-8-27,86,74,68,72,69,66,99,86,52,29.90,29.84,5,0,12,0.59
2013-8-28,87,74,66,72,69,65,99,85,56,29.92,29.83,11,0,11,0.00
2013-8-29,82,72,66,70,66,62,98,84,52,30.04,29.92,10,0,10,0.00
2013-8-30,85,74,65,70,67,64,98,80,58,29.98,29.74,14,1,14,0.00
2013-8-31,76,72,69,73,69,67,98,92,81,29.78,29.72,9,1,10,0.74
2013-9-1,84,74,68,70,68,66,99,84,59,29.86,29.77,12,1,12,0.01
2013-9-2,80,72,64,70,67,61,98,87,66,29.80,29.64,26,1,26,0.31
2013-9-3,76,68,63,65,61,55,98,79,60,29.79,29.68,17,1,17,0.01
2013-9-4,79,66,59,61,58,53,95,79,45,29.90,29.79,19,1,19,0.12
2013-9-5,67,61,55,61,47,37,97,63,33,30.14,29.87,17,2,17,0.16
2013-9-6,67,61,56,46,46,43,67,58,42,30.08,30.04,14,2,14,0.00
2013-9-7,67,61,54,55,50,46,77,68,59,30.04,29.82,15,2,15,0.00
2013-9-8,65,58,46,55,46,39,93,65,40,30.10,29.76,24,3,24,0.12
2013-9-9,68,55,42,50,44,39,93,69,45,30.19,30.03,20,3,20,0.12
2013-9-10,75,66,60,70,61,49,97,84,69,30.05,29.94,18,4,18,0.79
2013-9-11,91,78,72,80,72,67,92,81,63,29.98,29.87,20,3,20,0.06
2013-9-12,80,72,68,71,68,65,98,86,69,29.89,29.60,18,2,18,0.11
2013-9-13,68,60,54,68,56,48,98,88,79,29.87,29.60,21,4,21,0.03
2013-9-14,67,56,48,52,48,46,95,75,52,30.07,29.86,14,2,14,0.03
2013-9-15,66,56,44,54,49,43,97,80,61,30.14,30.00,14,2,14,0.00
2013-9-16,58,51,40,54,45,36,98,81,50,30.33,30.00,23,3,23,0.11
2013-9-17,67,50,36,47,40,35,98,74,36,30.48,30.31,13,1,13,0.11
2013-9-18,71,55,42,51,46,40,96,72,37,30.32,30.11,12,1,12,0.00
2013-9-19,77,60,46,55,50,44,95,71,36,30.15,30.00,12,1,12,0.00
2013-9-20,78,65,50,58,53,46,94,68,36,30.07,29.88,19,2,19,0.00
2013-9-21,75,67,60,63,57,47,96,71,38,29.89,29.57,36,7,36,0.66
2013-9-22,64,58,48,62,51,41,97,78,54,29.90,29.55,19,3,19,0.02
2013-9-23,56,49,44,42,39,36,79,68,56,30.05,29.90,24,5,24,0.02
2013-9-24,65,54,48,46,42,38,86,64,45,30.04,29.89,16,2,16,0.00
2013-9-25,69,54,42,51,46,41,98,79,50,30.01,29.91,16,1,16,0.00
2013-9-26,66,54,40,52,47,40,99,79,57,30.16,30.01,17,2,17,0.00
2013-9-27,68,57,48,53,51,47,97,79,54,30.29,30.16,11,0,11,0.00
2013-9-28,77,56,43,57,50,43,100,83,36,30.37,30.22,4,0,7,0.00
2013-9-29,74,60,47,56,51,47,98,76,42,30.22,30.03,12,1,12,0.01
2013-9-30,78,60,48,56,52,47,96,78,41,30.08,29.95,13,1,13,0.01
2013-10-1,75,60,47,60,54,46,99,84,56,30.00,29.85,9,1,9,0.00
2013-10-2,79,65,54,62,54,49,93,70,38,29.96,29.80,18,2,18,0.00
2013-10-3,74,60,48,54,50,45,95,71,43,30.10,29.95,9,1,9,0.00
2013-10-4,62,55,45,56,51,44,98,87,75,30.10,30.04,12,1,12,0.01
2013-10-5,63,57,54,52,49,44,90,74,53,30.13,30.07,13,1,13,0.01
2013-10-6,59,56,54,54,50,45,96,81,72,30.13,29.98,21,2,21,0.24
2013-10-7,75,64,56,65,56,47,95,77,61,29.98,29.54,33,7,33,0.77
2013-10-8,66,54,41,47,40,34,89,62,32,30.38,29.88,17,2,17,0.77
2013-10-9,66,50,36,44,38,30,96,70,27,30.46,30.32,13,1,13,0.00
2013-10-10,64,51,39,50,44,36,94,77,53,30.33,30.17,6,0,6,0.00
2013-10-11,71,54,44,52,47,43,97,78,38,30.18,30.11,10,0,10,0.00
2013-10-12,74,56,42,55,48,41,98,77,45,30.33,30.16,15,2,15,0.00
2013-10-13,69,59,52,51,48,46,85,70,49,30.39,30.26,17,6,17,0.00
2013-10-14,56,55,52,55,51,47,99,88,72,30.31,30.24,21,4,21,0.09
2013-10-15,63,56,50,57,53,50,100,93,74,30.28,30.07,13,1,13,0.10
2013-10-16,64,60,57,54,52,49,86,75,64,30.07,29.79,24,7,24,0.04
2013-10-17,67,60,54,56,52,46,96,77,49,29.82,29.66,18,2,18,0.09
2013-10-18,63,55,48,54,47,37,99,76,50,29.89,29.60,21,3,21,0.02
2013-10-19,61,53,45,48,42,38,91,68,53,29.90,29.64,22,5,22,0.05
2013-10-20,57,52,44,48,39,31,91,64,38,29.98,29.61,21,4,21,0.06
2013-10-21,62,52,40,44,40,36,86,64,45,30.06,29.83,19,6,22,0.00
2013-10-22,58,52,42,47,38,26,79,61,41,29.83,29.68,25,6,25,0.01
2013-10-23,54,45,39,36,32,30,76,62,43,29.77,29.61,15,2,15,0.01
2013-10-24,46,41,33,38,32,25,83,71,58,29.87,29.66,19,3,19,0.00
2013-10-25,48,41,38,32,28,25,74,60,45,30.12,29.88,19,3,19,0.00
2013-10-26,48,42,33,35,32,28,83,69,48,30.11,29.77,27,6,27,0.00
2013-10-27,50,44,37,37,32,28,74,61,49,30.02,29.73,22,4,22,0.00
2013-10-28,48,41,31,39,29,19,84,64,36,30.39,30.00,24,4,24,0.02
2013-10-29,47,34,24,28,24,20,86,67,39,30.49,30.33,10,1,10,0.02
2013-10-30,47,37,30,35,29,22,92,72,60,30.33,30.17,9,1,11,0.00
2013-10-31,60,47,32,58,44,29,95,90,85,30.21,29.56,26,7,26,0.11
2013-11-1,69,62,54,61,52,40,93,72,35,29.61,29.24,26,11,33,0.11
2013-11-2,56,46,37,45,41,31,93,81,62,29.90,29.59,25,4,25,0.05
2013-11-3,39,34,27,31,21,16,78,59,41,30.50,29.90,17,6,22,0.05
2013-11-4,40,31,23,20,18,14,77,60,40,30.70,30.50,18,2,18,0.00
2013-11-5,49,43,31,34,27,16,63,53,42,30.62,30.39,27,9,27,0.00
2013-11-6,58,52,45,45,40,34,72,65,56,30.40,29.83,29,11,29,0.00
2013-11-7,56,48,36,51,40,22,93,74,55,29.89,29.68,29,7,29,0.15
2013-11-8,42,37,31,29,24,20,78,61,47,30.11,29.84,26,5,26,0.15
2013-11-9,43,38,32,33,24,20,85,57,42,30.19,29.90,18,4,18,0.00
2013-11-10,46,42,37,38,35,27,90,78,61,29.90,29.67,21,6,21,0.02
2013-11-11,45,40,34,35,28,24,90,64,53,30.09,29.82,27,7,27,0.02
2013-11-12,34,29,24,29,17,13,81,62,51,30.26,29.91,24,5,24,0.00
2013-11-13,33,28,21,20,14,9,71,56,40,30.34,30.02,25,3,25,0.00
2013-11-14,45,38,32,30,24,19,60,56,48,30.04,29.99,26,7,26,0.01
2013-11-15,54,44,36,22,19,16,53,37,27,30.14,30.04,24,5,24,0.01
2013-11-16,57,47,37,30,26,20,61,44,30,30.26,30.13,16,3,16,0.00
2013-11-17,60,50,38,52,42,29,94,74,57,30.21,29.63,28,7,28,0.06
2013-11-18,62,53,43,57,42,26,91,66,42,29.66,29.33,34,9,34,0.09
2013-11-19,43,34,29,29,19,14,76,54,42,30.39,29.66,35,8,35,0.10
2013-11-20,39,30,22,21,18,16,83,62,42,30.64,30.39,17,2,17,0.00
2013-11-21,42,32,19,27,18,10,85,59,29,30.63,30.32,23,5,23,0.00
2013-11-22,44,40,36,41,36,27,97,87,60,30.32,29.80,13,2,13,0.10
2013-11-23,44,33,22,38,21,10,83,61,40,29.97,29.77,31,5,31,0.11
2013-11-24,24,19,16,12,2,-8,67,47,32,30.27,29.88,33,10,33,0.00
2013-11-25,31,21,9,14,4,-5,65,50,32,30.40,30.14,28,7,28,0.00
2013-11-26,34,32,30,31,24,13,96,74,46,30.24,29.95,23,6,23,0.00
2013-11-27,37,34,31,37,33,24,99,95,76,29.95,29.37,20,4,20,0.60
2013-11-28,31,23,16,24,10,4,78,56,38,30.43,29.54,25,6,25,0.60
2013-11-29,29,19,11,14,9,6,83,67,41,30.77,30.43,9,1,11,0.00
2013-11-30,29,21,10,14,10,5,85,64,48,30.79,30.30,24,6,24,0.00
2013-12-1,38,33,29,31,26,14,96,76,54,30.30,30.02,20,4,20,0.00
2013-12-2,38,34,30,35,31,29,98,89,74,30.02,29.88,11,1,11,0.00
2013-12-3,45,35,30,36,30,26,95,83,69,30.00,29.90,14,1,14,0.00
2013-12-4,44,33,27,29,25,22,85,74,54,30.15,29.99,7,1,7,0.00
2013-12-5,54,45,30,51,40,25,91,82,75,30.11,29.80,22,7,22,0.01
2013-12-6,52,40,34,50,34,24,95,81,59,30.14,29.84,15,2,15,0.21
2013-12-7,36,31,27,26,18,10,73,58,41,30.46,30.09,20,4,20,0.21
2013-12-8,30,26,24,17,13,9,67,57,47,30.59,30.44,14,1,14,0.00
2013-12-9,35,30,25,32,25,14,98,84,56,30.44,29.82,21,6,21,0.00
2013-12-10,37,30,20,30,17,4,89,57,39,29.94,29.79,18,3,18,0.01
2013-12-11,28,22,16,21,12,3,87,66,42,30.17,29.94,17,3,17,0.01
2013-12-12,19,15,7,9,2,-4,70,56,40,30.32,29.93,23,5,23,0.00
2013-12-13,20,14,5,13,4,-7,83,65,46,30.46,29.90,22,5,22,0.00
2013-12-14,10,6,1,6,-3,-9,83,66,44,30.63,30.12,11,1,11,0.00
2013-12-15,23,18,10,20,15,6,90,87,83,30.12,29.55,13,1,14,0.00
2013-12-16,21,13,3,11,1,-8,88,59,32,30.24,29.70,27,4,27,0.00
2013-12-17,17,5,-10,11,-2,-17,82,75,59,30.26,30.00,16,2,16,0.00
2013-12-18,27,18,10,21,13,6,88,80,64,30.00,29.93,12,1,12,0.02
2013-12-19,36,32,25,28,23,20,86,71,58,30.05,29.89,24,5,24,0.02
2013-12-20,38,30,23,31,25,20,94,84,69,30.05,29.88,12,2,12,0.00
2013-12-21,47,30,24,40,27,21,96,90,72,29.98,29.78,18,4,18,0.10
2013-12-22,29,26,23,28,25,21,96,94,90,29.97,29.74,13,1,13,0.10
2013-12-23,31,28,25,30,26,21,96,94,82,30.17,29.96,9,1,9,0.00
2013-12-24,26,16,8,22,11,0,88,81,69,30.35,30.16,15,2,15,0.00
2013-12-25,14,8,1,7,1,-6,81,72,63,30.58,30.35,12,2,12,0.00
2013-12-26,27,22,14,24,19,7,91,85,71,30.38,30.08,14,3,14,0.00
2013-12-27,30,26,21,22,21,17,92,81,67,30.20,30.13,12,3,12,0.01
2013-12-28,39,32,24,32,26,18,89,79,72,30.12,29.96,25,6,25,0.04
2013-12-29,41,36,31,34,30,28,97,81,61,29.97,29.57,23,4,23,0.53
2013-12-30,36,20,5,34,11,-6,98,68,43,30.23,29.56,20,5,20,0.01
2013-12-31,18,11,4,12,2,-6,83,67,54,30.23,30.00,12,2,12,0.01
2014-1-1,21,11,-2,9,-1,-15,79,57,41,30.48,30.13,18,4,18,0.00
2014-1-2,-2,-6,-10,-12,-14,-18,72,68,53,30.48,30.07,24,9,24,0.00